Weather History for KHRI - June, 2013

Change the Weather History Date:

Sunday, June 30, 2013

  Actual Average Record
Temperature  
Mean Temperature 82 °F -  
Max Temperature 102 °F 81 °F 105 °F (2008)
Min Temperature 63 °F 52 °F 38 °F (1949)
Cooling Degree Days 16    
Growing Degree Days 32 (Base 50)    
Moisture  
Dew Point 61 °F    
Average Humidity 52    
Maximum Humidity 90    
Minimum Humidity 25    
Precipitation  
Precipitation 0.00 in - - ()
Sea Level Pressure  
Sea Level Pressure 29.90 in    
Wind  
Wind Speed 5 mph (NNE)    
Max Wind Speed 15 mph    
Max Gust Speed -    
Visibility 10 miles    
Events      
Averages and records for this station are not official NWS values.
T = Trace of Precipitation, MM = Missing Value Source: NWS Daily Summary

Daily Weather History Graph

Daily Weather History Graph

Search for Another Location

Airport or City:

Trip Planner

Search our weather history database for the weather conditions in past years. The results will help you decide how hot, cold, wet, or windy it might be!

Date:

Astronomy

Jun. 30, 2013 Rise Set
Actual Time 5:10 AM PDT 8:50 PM PDT
Civil Twilight 4:32 AM PDT 9:28 PM PDT
Nautical Twilight 3:41 AM PDT 10:19 PM PDT
Astronomical Twilight 2:31 AM PDT 11:29 PM PDT
Moon 12:27 AM PDT (6/30) 1:57 PM PDT (6/30)
Length of Visible Light 16h 56m
Length of Day
15h 40m
Last Quarter, 44% of the Moon is Illuminated
Jun 30
Last Quarter
Jul 8
New
Jul 15
First Quarter
Jul 22
Full
Jul 29
Last Quarter

Hourly Weather History & Observations

Time (PDT) Temp. Heat Index Dew Point Humidity Pressure Visibility Wind Dir Wind Speed Gust Speed Precip Events Conditions
12:53 AM 69.1 °F - 62.1 °F 78% 29.96 in 10.0 mi South 4.6 mph - N/A   Clear
1:53 AM 66.9 °F - 62.1 °F 84% 29.96 in 10.0 mi Calm Calm - N/A   Clear
2:53 AM 66.0 °F - 61.0 °F 84% 29.96 in 10.0 mi South 4.6 mph - N/A   Partly Cloudy
3:53 AM 64.9 °F - 61.0 °F 87% 29.96 in 10.0 mi Calm Calm - N/A   Clear
4:53 AM 63.0 °F - 60.1 °F 90% 29.96 in 10.0 mi South 3.5 mph - N/A   Clear
5:53 AM 64.9 °F - 62.1 °F 90% 29.98 in 10.0 mi Calm Calm - N/A   Clear
6:53 AM 71.1 °F - 63.0 °F 75% 29.98 in 10.0 mi Calm Calm - N/A   Clear
7:53 AM 75.9 °F - 64.0 °F 67% 29.98 in 10.0 mi Calm Calm - N/A   Clear
8:53 AM 80.1 °F 81.7 °F 64.0 °F 58% 29.98 in 10.0 mi Calm Calm - N/A   Clear
9:53 AM 84.0 °F 84.9 °F 63.0 °F 49% 29.96 in 10.0 mi NE 4.6 mph - N/A   Clear
10:53 AM 89.1 °F 89.3 °F 62.1 °F 40% 29.95 in 10.0 mi NNE 9.2 mph - N/A   Clear
11:53 AM 93.0 °F 92.3 °F 59.0 °F 32% 29.93 in 10.0 mi NNE 11.5 mph - N/A   Clear
12:53 PM 95.0 °F 94.8 °F 60.1 °F 31% 29.91 in 10.0 mi NNE 12.7 mph - N/A   Clear
1:53 PM 98.1 °F 98.1 °F 60.1 °F 28% 29.89 in 10.0 mi NNE 13.8 mph - N/A   Clear
2:53 PM 99.0 °F 99.5 °F 60.1 °F 28% 29.87 in 10.0 mi NNE 12.7 mph - N/A   Clear
3:53 PM 100.9 °F 101.6 °F 60.1 °F 26% 29.85 in 10.0 mi NNE 15.0 mph - N/A   Clear
4:53 PM 100.9 °F 101.0 °F 59.0 °F 25% 29.83 in 10.0 mi NE 12.7 mph - N/A   Clear
5:53 PM 100.9 °F 101.6 °F 60.1 °F 26% 29.81 in 10.0 mi NNE 12.7 mph - N/A   Clear
6:53 PM 98.1 °F 99.1 °F 62.1 °F 30% 29.81 in 10.0 mi North 9.2 mph - N/A   Clear
7:53 PM 93.0 °F 92.7 °F 60.1 °F 33% 29.80 in 10.0 mi NNE 11.5 mph - N/A   Clear
8:53 PM 88.0 °F 87.6 °F 60.1 °F 39% 29.80 in 10.0 mi NNE 9.2 mph - N/A   Clear
9:53 PM 84.9 °F 84.8 °F 60.1 °F 43% 29.82 in 10.0 mi NNE 5.8 mph - N/A   Clear
10:53 PM 81.0 °F 81.7 °F 61.0 °F 50% 29.84 in 10.0 mi Calm Calm - N/A   Clear
11:53 PM 78.1 °F - 61.0 °F 56% 29.84 in 10.0 mi West 3.5 mph - N/A   Clear